Lexington Weather

Lexington, Massachusetts, USA

46°F
12/8/2022 3:57pm 
  • Lexington Conditions: Clear
  • Temperature: 45.7°F / 7.6°CColder 2.9°F than last hour.
  • Dew Point: 33.8°FDecreased 2.0°Fsince last hour.
  • Relative Humidity: 63%Increased 2.0% since last hour.
  • Wind: Wind from NW NW 1 mph, 10-min avg: 3 mph, gust: 11 mph
  • Barometer: 30.10 inRising 0.03  inHg/hr Rising Slowly
  • Visibility: 10 miles
  • Rain Today: 0.00 in
  •   

Warning: Undefined variable $rc in /homepages/6/d276339138/htdocs/weather/20190804/ssi/nwsProduct.php on line 323

Warning: Undefined variable $rc in /homepages/6/d276339138/htdocs/weather/20190804/ssi/nwsProduct.php on line 325

Warning: Undefined variable $rc in /homepages/6/d276339138/htdocs/weather/20190804/ssi/nwsProduct.php on line 323

Warning: Undefined variable $rc in /homepages/6/d276339138/htdocs/weather/20190804/ssi/nwsProduct.php on line 325

Warning: Undefined variable $rc in /homepages/6/d276339138/htdocs/weather/20190804/ssi/nwsProduct.php on line 323

Warning: Undefined variable $rc in /homepages/6/d276339138/htdocs/weather/20190804/ssi/nwsProduct.php on line 325

Warning: Undefined variable $rc in /homepages/6/d276339138/htdocs/weather/20190804/ssi/nwsProduct.php on line 323

Warning: Undefined variable $rc in /homepages/6/d276339138/htdocs/weather/20190804/ssi/nwsProduct.php on line 325

Warning: Undefined variable $rc in /homepages/6/d276339138/htdocs/weather/20190804/ssi/nwsProduct.php on line 323

Warning: Undefined variable $rc in /homepages/6/d276339138/htdocs/weather/20190804/ssi/nwsProduct.php on line 325

Warning: Undefined variable $rc in /homepages/6/d276339138/htdocs/weather/20190804/ssi/nwsProduct.php on line 323

Warning: Undefined variable $rc in /homepages/6/d276339138/htdocs/weather/20190804/ssi/nwsProduct.php on line 325

Warning: Undefined variable $rc in /homepages/6/d276339138/htdocs/weather/20190804/ssi/nwsProduct.php on line 323

Warning: Undefined variable $rc in /homepages/6/d276339138/htdocs/weather/20190804/ssi/nwsProduct.php on line 325

Regional Weather Roundup
for Boston, MA

        
000
ASUS41 KBOX 050110
RWRBOX

REGIONAL WEATHER ROUNDUP
NATIONAL WEATHER SERVICE BOSTON/NORTON MA
800 PM EST SUN DEC 04 2022

NOTE:  "FAIR" INDICATES FEW OR NO CLOUDS BELOW 12,000 FEET WITH NO 
SIGNIFICANT WEATHER AND/OR OBSTRUCTIONS TO VISIBILITY.

MAZALL-050200-
EASTERN MASSACHUSETTS
  
CITY           SKY/WX    TMP DP  RH WIND       PRES   REMARKS
BOSTON         PTCLDY    39  18  42 NW6       30.20R                  
BEVERLY        CLEAR     29  20  69 CALM      30.18R                  
LAWRENCE       CLEAR     31  20  63 CALM      30.20R                  
BEDFORD        CLEAR     31  21  66 CALM      30.18R                  
NORWOOD        CLEAR     30  25  81 CALM      30.20R                  
MARSHFIELD       N/A     30  25  80 CALM      30.19R                  
PLYMOUTH       CLEAR     30  23  75 CALM      30.18F                  
TAUNTON          N/A    N/A N/A N/A MISG      30.19S                  
NEW BEDFORD    CLEAR     29  26  89 CALM      30.18F                  
$$

MAZALL-050200-
CAPE COD AND THE ISLANDS
  
CITY           SKY/WX    TMP DP  RH WIND       PRES   REMARKS
FALMOUTH       CLEAR     28  25  86 CALM      30.18F                  
HYANNIS        CLEAR     29  24  82 CALM      30.18S                  
CHATHAM        PTCLDY    34  27  75 CALM      30.19F                  
PROVINCETOWN   CLEAR     38  23  55 NW6       30.20F                  
NANTUCKET      PTCLDY    36  27  69 CALM      30.20S                  
MARTHAS VNYRD  CLEAR     30  22  72 CALM      30.19S                  
$$
 
MAZALL-050200-
CENTRAL AND WESTERN MASSACHUSETTS
  
CITY           SKY/WX    TMP DP  RH WIND       PRES   REMARKS
WORCESTER      CLEAR     31  19  61 SW5       30.14R WCI  26          
FITCHBURG      CLEAR     29  19  66 CALM      30.18R                  
ORANGE         CLEAR     26  21  81 CALM      30.17R                  
SPRINGFIELD    PTCLDY    26  21  80 CALM      30.16S                  
WESTFIELD      CLEAR     25  21  85 CALM      30.18R                  
NORTH ADAMS    CLEAR     27  21  78 CALM      30.15F                  
PITTSFIELD     CLEAR     23  18  81 CALM      30.12S                  
$$
 
RIZALL-050200-
RHODE ISLAND
  
CITY           SKY/WX    TMP DP  RH WIND       PRES   REMARKS
PROVIDENCE     PTCLDY    34  22  61 W5        30.21R WCI  30          
NEWPORT        CLEAR     33  22  63 CALM      30.18F                  
BLOCK ISLAND   CLEAR     36  22  56 N5        30.20F                  
SMITHFIELD     CLEAR     29  22  75 W3        30.20R                  
WESTERLY       CLEAR     30  22  72 CALM      30.21R                  
$$
 
CTZALL-050200-
CONNECTICUT
  
CITY           SKY/WX    TMP DP  RH WIND       PRES   REMARKS
BRADLEY INTL   CLEAR     30  21  69 CALM      30.18R                  
HARTFORD       CLEAR     31  23  72 CALM      30.20R                  
BRIDGEPORT     CLEAR     32  24  72 CALM      30.19S                  
DANBURY        CLEAR     29  22  75 CALM      30.18S                  
GROTON         CLEAR     32  23  69 CALM      30.21R                  
NEW HAVEN      CLEAR     30  22  72 E3        30.19R                  
CHESTER        FAIR      30  23  74 CALM      30.19R                  
MERIDEN        CLEAR     29  23  78 CALM      30.20R                  
WILLIMANTIC    CLEAR     29  23  78 CALM      30.20R                  
OXFORD         CLEAR     30  23  75 SE3       30.17S                  
$$

MEZ002-015-021-024-NHZ003-005-008-011-012-014-VTZ005-008-050200-
NORTHERN NEW ENGLAND
  
CITY           SKY/WX    TMP DP  RH WIND       PRES   REMARKS
PORTLAND ME    CLEAR     30  16  56 W3        30.18F                  
BANGOR ME      PTCLDY    27  16  63 SW3       30.16R                  
CONCORD NH     CLEAR     26  18  71 MISG      30.17R                  
MANCHESTER NH  PTCLDY    29  22  75 CALM      30.16S                  
NASHUA NH      PTCLDY    28  23  81 NW3       30.19R                  
PORTSMOUTH NH  CLEAR     30  15  52 CALM      30.19R                  
JAFFREY NH     CLEAR     28  21  75 S3        30.14R                  
KEENE NH       CLEAR     26  22  84 CALM        N/A                   
BURLINGTON VT  PTCLDY    32  20  61 S10       30.08S WCI  24          
MT. WASHINGTON FOG        7   7 100 W38         N/A  VSB 1/16WCI -19  
$$

NYZ052-076-050200-
EASTERN NEW YORK
  
CITY           SKY/WX    TMP DP  RH WIND       PRES   REMARKS
ALBANY         CLEAR     28  21  75 S3        30.15F                  
NEW YORK CITY  PTCLDY    43  19  38 VRB5      30.20R                  
$$
 
ANZALL-050200-
MARINE OBSERVATIONS
  
STATION/POSITION TIME  TEMP    WIND        PRES    VSBY  WAVE
                       AIR SEA DIR/SP/G                  HT/PER
                 (UTC) (F)     (DEG/KT/KT) (MB)    (MI)  (FT/S)
BOSTON BUOY      0050          300/  6/ 10 1022.5F         2/11
BUZZARDS BAY     0000   41     320/ 12/ 14 1023.2R
NANTUCKET SOUND  0050   42     350/  4/  6 1022.1F         1
MASS BAY-STELLWA 2304   40 50  320/  4/  6 1021.2R  1 7/8  3/11
ISLE OF SHOALS   0000   36     320/  7/  9 1021.5R
S OF BLOCK IS    0026      55                N/A           3/ 8
$$

......................KEY.........................
  SKY/WX - SKY CONDITION/PRESENT WEATHER
  TMP    - TEMPERATURE IN FAHRENHEIT
  DWPT   - DEWPOINT IN FAHRENHEIT
  RH     - RELATIVE HUMIDITY IN PERCENT
  WIND   - DIRECTION AND SPEED IN MPH
  PRES   - MEAN SEA LEVEL PRESSURE IN INCHES OF HG
  WCI    - WIND CHILL INDEX
  VSB    - VISIBILITY IN MILES
  HX     - HEAT INDEX
  TC     - TEMPERATURE IN CELSIUS
  VRB    - VARIABLE WIND DIRECTION
  N/A    - NOT AVAILABLE
  
      

Other recent Regional Weather Roundups

Thu Dec 8, 3:10pm

Thu Dec 8, 2:10pm

Thu Dec 8, 1:10pm

Thu Dec 8, 12:10pm

Thu Dec 8, 11:10am

Thu Dec 8, 10:10am

Thu Dec 8, 9:10am

Thu Dec 8, 8:10am

Thu Dec 8, 7:10am

Thu Dec 8, 6:10am

Thu Dec 8, 5:10am

Thu Dec 8, 4:10am

Thu Dec 8, 3:10am

Thu Dec 8, 2:10am

Thu Dec 8, 1:10am

Thu Dec 8, 12:10am

Wed Dec 7, 11:10pm

Wed Dec 7, 10:10pm

Wed Dec 7, 9:10pm

Wed Dec 7, 8:10pm

Wed Dec 7, 7:10pm

Wed Dec 7, 6:10pm

Wed Dec 7, 5:10pm

Wed Dec 7, 4:10pm

Wed Dec 7, 3:10pm

Wed Dec 7, 2:10pm

Wed Dec 7, 1:10pm

Wed Dec 7, 12:10pm

Wed Dec 7, 11:10am

Wed Dec 7, 10:10am

Wed Dec 7, 9:10am

Wed Dec 7, 8:10am

Wed Dec 7, 7:10am

Wed Dec 7, 6:10am

Wed Dec 7, 5:10am

Wed Dec 7, 4:10am

Wed Dec 7, 3:10am

Wed Dec 7, 2:10am

Wed Dec 7, 1:10am

Wed Dec 7, 12:10am

Tue Dec 6, 11:10pm

Tue Dec 6, 10:10pm

Tue Dec 6, 9:10pm

Tue Dec 6, 8:10pm

Tue Dec 6, 7:10pm

Tue Dec 6, 6:10pm

Tue Dec 6, 5:10pm

Tue Dec 6, 4:10pm

Tue Dec 6, 3:10pm

Tue Dec 6, 2:10pm

Tue Dec 6, 1:10pm

Tue Dec 6, 12:10pm

Tue Dec 6, 11:10am

Tue Dec 6, 10:10am

Tue Dec 6, 9:10am

Tue Dec 6, 8:10am

Tue Dec 6, 7:10am

Tue Dec 6, 6:10am

Tue Dec 6, 5:10am

Tue Dec 6, 4:10am

Tue Dec 6, 3:10am

Tue Dec 6, 2:10am

Tue Dec 6, 1:10am

Tue Dec 6, 12:10am

Mon Dec 5, 11:10pm

Mon Dec 5, 10:10pm

Mon Dec 5, 9:10pm

Mon Dec 5, 8:10pm

Mon Dec 5, 7:10pm

Mon Dec 5, 6:10pm

Mon Dec 5, 5:10pm

Mon Dec 5, 4:10pm

Mon Dec 5, 3:10pm

Mon Dec 5, 2:10pm

Mon Dec 5, 1:10pm

Mon Dec 5, 12:10pm

Mon Dec 5, 11:10am

Mon Dec 5, 10:10am

Mon Dec 5, 9:10am

Mon Dec 5, 8:10am

Mon Dec 5, 7:10am

Mon Dec 5, 6:10am

Mon Dec 5, 5:10am

Mon Dec 5, 4:10am

Mon Dec 5, 3:10am

Mon Dec 5, 2:10am

Mon Dec 5, 1:10am

Mon Dec 5, 12:10am

Sun Dec 4, 11:10pm

Sun Dec 4, 10:10pm

Sun Dec 4, 9:10pm

Sun Dec 4, 7:10pm

Sun Dec 4, 6:10pm

Sun Dec 4, 5:10pm

Sun Dec 4, 4:10pm

Sun Dec 4, 3:10pm

Sun Dec 4, 2:10pm

Sun Dec 4, 1:10pm

Sun Dec 4, 12:10pm

Sun Dec 4, 11:10am

Sun Dec 4, 10:10am

Sun Dec 4, 9:10am

Sun Dec 4, 8:10am

Sun Dec 4, 7:10am

Sun Dec 4, 6:10am

Sun Dec 4, 5:10am

Sun Dec 4, 4:10am

Sun Dec 4, 3:10am

Sun Dec 4, 2:10am

Sun Dec 4, 1:10am

Sun Dec 4, 12:10am

Sat Dec 3, 11:10pm

Sat Dec 3, 10:10pm

Sat Dec 3, 9:10pm

Sat Dec 3, 8:10pm

Sat Dec 3, 7:10pm

Sat Dec 3, 6:10pm

Sat Dec 3, 5:10pm

Sat Dec 3, 4:10pm

Sat Dec 3, 3:10pm

Sat Dec 3, 2:10pm

Sat Dec 3, 1:10pm

Sat Dec 3, 12:10pm

Sat Dec 3, 11:10am

Sat Dec 3, 10:10am

Sat Dec 3, 9:10am

Sat Dec 3, 8:10am

Sat Dec 3, 7:10am

Sat Dec 3, 6:10am

Sat Dec 3, 5:10am

Sat Dec 3, 4:10am

Sat Dec 3, 3:10am

Sat Dec 3, 2:10am

Sat Dec 3, 1:10am

Sat Dec 3, 12:10am

Fri Dec 2, 11:10pm

Fri Dec 2, 10:10pm

Fri Dec 2, 9:10pm

Fri Dec 2, 8:10pm

Fri Dec 2, 7:10pm

Fri Dec 2, 6:10pm

Fri Dec 2, 5:10pm

Fri Dec 2, 4:10pm

Fri Dec 2, 3:10pm

Fri Dec 2, 2:10pm

Fri Dec 2, 1:10pm

Fri Dec 2, 12:10pm

Fri Dec 2, 11:10am

Fri Dec 2, 10:10am

Fri Dec 2, 9:10am

Fri Dec 2, 8:10am

Fri Dec 2, 7:10am

Fri Dec 2, 6:10am

Fri Dec 2, 5:10am

Fri Dec 2, 4:10am

Fri Dec 2, 3:10am

Fri Dec 2, 2:10am

Fri Dec 2, 1:10am

Fri Dec 2, 12:10am

Thu Dec 1, 11:10pm

Thu Dec 1, 10:10pm

Thu Dec 1, 9:10pm

Thu Dec 1, 8:10pm

Thu Dec 1, 7:10pm

Thu Dec 1, 6:10pm

Thu Dec 1, 5:10pm

Thu Dec 1, 4:10pm

Meta data:

ID: 1db3fa96-a5d6-4b21-9971-475cf0187d79
Link: https://api.weather.gov/products/1db3fa96-a5d6-4b21-9971-475cf0187d79